TimeCST,TemperatureF,Dew PointF,Humidity,Sea Level PressureIn,VisibilityMPH,Wind Direction,Wind SpeedMPH,Gust SpeedMPH,PrecipitationIn,Events,Conditions,WindDirDegrees,DateUTC
12:15 AM,69.8,60.8,73,29.87,10.0,SSE,16.1,19.6,N/A,,Overcast,160,2013-01-29 06:15:00
12:35 AM,69.8,60.8,73,29.86,10.0,SSE,16.1,-,N/A,,Overcast,160,2013-01-29 06:35:00
12:55 AM,69.8,60.8,73,29.87,10.0,South,18.4,21.9,N/A,,Overcast,180,2013-01-29 06:55:00
1:15 AM,69.8,60.8,73,29.87,10.0,South,15.0,-,N/A,,Overcast,170,2013-01-29 07:15:00
1:35 AM,69.8,60.8,73,29.87,10.0,South,15.0,23.0,N/A,,Overcast,170,2013-01-29 07:35:00
1:55 AM,69.8,60.8,73,29.84,10.0,South,15.0,-,N/A,,Overcast,170,2013-01-29 07:55:00
2:15 AM,69.8,62.6,78,29.84,10.0,South,16.1,19.6,N/A,,Overcast,170,2013-01-29 08:15:00
2:35 AM,68.0,62.6,83,29.83,10.0,South,17.3,21.9,N/A,,Overcast,170,2013-01-29 08:35:00
2:55 AM,68.0,62.6,83,29.82,10.0,SSE,16.1,20.7,N/A,,Mostly Cloudy,160,2013-01-29 08:55:00
3:15 AM,68.0,62.6,83,29.82,10.0,South,13.8,19.6,N/A,,Scattered Clouds,170,2013-01-29 09:15:00
3:35 AM,68.0,62.6,83,29.82,10.0,South,16.1,21.9,N/A,,Mostly Cloudy,170,2013-01-29 09:35:00
3:55 AM,68.0,62.6,83,29.81,10.0,South,13.8,-,N/A,,Mostly Cloudy,170,2013-01-29 09:55:00
4:15 AM,68.0,62.6,83,29.80,10.0,SSE,15.0,20.7,N/A,,Overcast,160,2013-01-29 10:15:00
4:35 AM,68.0,62.6,83,29.79,10.0,South,13.8,19.6,N/A,,Overcast,170,2013-01-29 10:35:00
4:55 AM,68.0,62.6,83,29.79,10.0,SSE,18.4,24.2,N/A,,Overcast,160,2013-01-29 10:55:00
5:15 AM,68.0,62.6,83,29.78,10.0,SSE,17.3,23.0,N/A,,Mostly Cloudy,160,2013-01-29 11:15:00
5:35 AM,68.0,62.6,83,29.77,10.0,SSE,17.3,23.0,N/A,,Mostly Cloudy,160,2013-01-29 11:35:00
5:55 AM,69.8,62.6,78,29.77,10.0,South,15.0,-,N/A,,Overcast,170,2013-01-29 11:55:00
6:15 AM,69.8,62.6,78,29.76,10.0,SSE,17.3,-,N/A,,Overcast,160,2013-01-29 12:15:00
6:35 AM,69.8,62.6,78,29.76,10.0,South,17.3,21.9,N/A,,Overcast,170,2013-01-29 12:35:00
6:55 AM,69.8,62.6,78,29.76,10.0,SSE,16.1,21.9,N/A,,Overcast,160,2013-01-29 12:55:00
7:15 AM,69.8,62.6,78,29.75,10.0,SSE,20.7,25.3,N/A,,Overcast,160,2013-01-29 13:15:00
7:35 AM,69.8,62.6,78,29.74,10.0,SSE,19.6,26.5,N/A,,Overcast,160,2013-01-29 13:35:00
7:55 AM,69.8,62.6,78,29.73,10.0,SSE,19.6,27.6,N/A,,Overcast,160,2013-01-29 13:55:00
8:15 AM,69.8,62.6,78,29.72,10.0,SSE,19.6,28.8,N/A,,Overcast,160,2013-01-29 14:15:00
8:35 AM,69.8,62.6,78,29.72,10.0,SSE,19.6,28.8,N/A,,Overcast,160,2013-01-29 14:35:00
8:55 AM,69.8,62.6,78,29.71,10.0,South,19.6,27.6,N/A,,Overcast,170,2013-01-29 14:55:00
9:15 AM,71.6,62.6,73,29.71,10.0,South,20.7,31.1,N/A,,Overcast,170,2013-01-29 15:15:00
9:35 AM,71.6,62.6,73,29.70,10.0,SSE,20.7,31.1,N/A,,Overcast,160,2013-01-29 15:35:00
9:55 AM,71.6,62.6,73,29.70,10.0,South,23.0,29.9,N/A,,Overcast,180,2013-01-29 15:55:00
10:15 AM,71.6,62.6,73,29.70,10.0,South,19.6,31.1,N/A,,Overcast,170,2013-01-29 16:15:00
10:35 AM,69.8,62.6,78,29.69,10.0,South,17.3,28.8,N/A,Rain,Rain,170,2013-01-29 16:35:00
10:55 AM,69.8,62.6,78,29.68,10.0,South,17.3,24.2,N/A,,Overcast,180,2013-01-29 16:55:00
11:15 AM,69.8,62.6,78,29.67,10.0,South,19.6,27.6,N/A,Rain,Light Rain,170,2013-01-29 17:15:00
11:35 AM,69.8,62.6,78,29.65,4.0,South,18.4,27.6,0.04,Rain,Rain,180,2013-01-29 17:35:00
11:55 AM,69.8,64.4,83,29.62,5.0,South,21.9,28.8,0.06,Rain-Thunderstorm,Light Thunderstorms and Rain,170,2013-01-29 17:55:00
12:15 PM,69.8,62.6,78,29.61,10.0,South,18.4,32.2,N/A,,Overcast,180,2013-01-29 18:15:00
12:35 PM,69.8,62.6,78,29.61,10.0,South,19.6,25.3,N/A,,Overcast,190,2013-01-29 18:35:00
12:55 PM,69.8,62.6,78,29.57,10.0,South,20.7,-,0.01,,Overcast,170,2013-01-29 18:55:00
1:15 PM,71.6,62.6,73,29.56,10.0,South,19.6,28.8,N/A,,Mostly Cloudy,180,2013-01-29 19:15:00
1:35 PM,71.6,62.6,73,29.55,10.0,South,18.4,24.2,N/A,,Mostly Cloudy,180,2013-01-29 19:35:00
1:55 PM,71.6,62.6,73,29.53,10.0,South,19.6,29.9,N/A,,Mostly Cloudy,180,2013-01-29 19:55:00
2:15 PM,73.4,62.6,69,29.51,10.0,South,20.7,35.7,N/A,,Mostly Cloudy,170,2013-01-29 20:15:00
2:35 PM,73.4,62.6,69,29.50,10.0,South,21.9,27.6,N/A,,Overcast,180,2013-01-29 20:35:00
2:55 PM,73.4,62.6,69,29.49,10.0,South,21.9,28.8,N/A,,Overcast,180,2013-01-29 20:55:00
3:15 PM,73.4,62.6,69,29.49,10.0,South,18.4,24.2,N/A,,Overcast,170,2013-01-29 21:15:00
3:35 PM,73.4,62.6,69,29.49,10.0,South,23.0,27.6,N/A,,Mostly Cloudy,180,2013-01-29 21:35:00
3:55 PM,73.4,62.6,69,29.48,10.0,South,18.4,29.9,N/A,,Overcast,190,2013-01-29 21:55:00
4:15 PM,75.2,62.6,65,29.48,10.0,South,16.1,26.5,N/A,,Overcast,190,2013-01-29 22:15:00
4:35 PM,75.2,60.8,61,29.48,10.0,South,16.1,25.3,N/A,,Mostly Cloudy,190,2013-01-29 22:35:00
4:55 PM,69.8,51.8,53,29.51,10.0,WNW,25.3,31.1,N/A,,Mostly Cloudy,290,2013-01-29 22:55:00
5:15 PM,60.8,51.8,72,29.55,10.0,West,15.0,25.3,0.03,Rain,Heavy Rain,280,2013-01-29 23:15:00
5:35 PM,55.4,51.8,88,29.56,7.0,West,9.2,-,0.13,Rain-Thunderstorm,Thunderstorms and Rain,280,2013-01-29 23:35:00
5:55 PM,55.4,53.6,94,29.55,10.0,WNW,11.5,-,0.19,Rain,Light Rain,290,2013-01-29 23:55:00
6:15 PM,57.2,53.6,88,29.56,10.0,WNW,13.8,19.6,N/A,,Drizzle,290,2013-01-30 00:15:00
6:35 PM,57.2,53.6,88,29.61,10.0,WSW,17.3,23.0,0.04,Rain,Rain,250,2013-01-30 00:35:00
6:55 PM,59.0,53.6,82,29.61,10.0,WNW,15.0,19.6,0.05,,Overcast,290,2013-01-30 00:55:00
7:15 PM,59.0,51.8,77,29.63,10.0,WNW,15.0,23.0,N/A,Rain,Rain,290,2013-01-30 01:15:00
7:35 PM,55.4,44.6,67,29.66,10.0,West,17.3,31.1,N/A,,Light Drizzle,280,2013-01-30 01:35:00
7:55 PM,55.4,44.6,67,29.61,10.0,NNW,3.5,-,N/A,,Scattered Clouds,340,2013-01-30 01:55:00
8:15 PM,55.4,44.6,67,29.64,10.0,West,3.5,-,N/A,,Scattered Clouds,260,2013-01-30 02:15:00
8:35 PM,53.6,44.6,72,29.65,10.0,WSW,3.5,-,N/A,,Mostly Cloudy,250,2013-01-30 02:35:00
8:55 PM,53.6,46.4,77,29.61,10.0,Calm,Calm,-,N/A,Rain,Light Rain,0,2013-01-30 02:55:00
9:15 PM,51.8,46.4,82,29.63,10.0,South,4.6,-,N/A,,Mostly Cloudy,170,2013-01-30 03:15:00
9:35 PM,51.8,46.4,82,29.67,10.0,South,8.1,-,N/A,,Mostly Cloudy,170,2013-01-30 03:35:00
9:55 PM,51.8,48.2,88,29.66,10.0,South,6.9,-,N/A,,Mostly Cloudy,180,2013-01-30 03:55:00
10:15 PM,53.6,44.6,72,29.66,10.0,SSW,8.1,-,N/A,,Mostly Cloudy,200,2013-01-30 04:15:00
10:35 PM,55.4,44.6,67,29.65,10.0,SW,8.1,-,N/A,,Mostly Cloudy,230,2013-01-30 04:35:00
10:55 PM,55.4,44.6,67,29.68,10.0,SSW,9.2,-,N/A,,Scattered Clouds,210,2013-01-30 04:55:00
11:15 PM,53.6,42.8,67,29.66,10.0,SW,8.1,-,N/A,,Clear,220,2013-01-30 05:15:00
11:35 PM,53.6,42.8,67,29.70,10.0,SW,8.1,-,N/A,,Mostly Cloudy,230,2013-01-30 05:35:00
11:55 PM,53.6,41.0,62,29.69,10.0,West,12.7,18.4,N/A,,Overcast,260,2013-01-30 05:55:00